Regional Weather Roundup
Issued by NWS Binghamton, NY

Home | Current Version | Previous Version | Text Only | Print | Product List | Glossary On
Versions: 1 2 3 4 5 6 7 8 9 10 11 12 13 14 15 16 17 18 19 20 21 22 23 24 25
707
ASUS41 KBGM 221610
RWRBGM
RWRBGM
BINGHAMTON REGIONAL WEATHER ROUNDUP
NATIONAL WEATHER SERVICE BINGHAMTON NY
1200 PM EDT FRI MAY 22 2015

Note: "fair" indicates few or no clouds below 12,000 feet with no
significant weather and/or obstructions to visibility.

* = Station(s) that does not report precipitation, such as rain,
snow, etc, also no thunder or fog.

!NYZ009-015>018-022>025-036-037-044>046-055>057-062-221700
...CENTRAL NEW YORK...

CITY           SKY/WX    TMP DP  RH WIND       PRES   REMARKS
BINGHAMTON     CLOUDY    55  35  47 NW14G21   29.98R
CORTLAND       PTSUNNY   55  39  54 NW7       30.01R
DANSVILLE      MOSUNNY   59  35  40 NW16G24   30.03R
ELMIRA         PTSUNNY   62  38  40 NW13G24   29.98S
ITHACA         MOSUNNY   58  39  49 NW14      30.02R
MONTICELLO     PTSUNNY   61  37  41 W13G26    29.95S
NORWICH        PTSUNNY   57  36  44 NW10G18   29.98S
ONEONTA        SUNNY     55  32  41 NW14G24   29.96R
PENN YAN       MOSUNNY   59  38  45 MISG      30.01S
ROME           MOSUNNY   60  31  33 NW17G25   29.97R
SIDNEY         MOSUNNY   61  37  41 W8G20     29.97R
SYRACUSE       MOSUNNY   60  35  39 NW13      29.99S
$$

!PAZ038>040-043-044-047-048-072-221700
...NORTHEAST PENNSYLVANIA...

CITY           SKY/WX    TMP DP  RH WIND       PRES   REMARKS
HAZLETON       MOSUNNY   61  43  51 W13G18    30.02F
SCRANTON       PTSUNNY   63  42  46 SW8       29.96F
$$
&&
KEY
WCI = WIND CHILL INDEX
VSB = VISIBILITY
HX  = HEAT INDEX
$$



USA.gov is the U.S. government's official web portal to all federal, state and local government web resources and services.